User: anonymous   Login
Location: Brno
(49.2000°N, 16.6330°E)
Time: 23:43:48
(UTC+01:00)
Language:

CARTOSAT-1 - Orbit

View from above orbital plane
View from above orbital plane
View from above satellite
View from above satellite

Ground track
Ground track

The orbit data is extracted from the following two-line orbital elements,

1 28649U 05017A   15063.49032927  .00001971  00000-0  24610-3 0  9997
2 28649 097.8061 137.1578 0001083 155.0561 205.0713 14.83480391532086
Epoch (UTC): 04 March 2015 11:46:04
Eccentricity: 0.0001083
inclination: 97.8061°
perigee height: 617 km
apogee height: 619 km
right ascension of ascending node: 137.1578°
argument of perigee: 155.0561°
revolutions per day: 14.83480391
mean anomaly at epoch: 205.0713°
orbit number at epoch: 53208

The dashed part of the orbit path shows where the satellite is in the earth's shadow,  

DLR